TimeEDT,TemperatureF,Dew PointF,Humidity,Sea Level PressureIn,VisibilityMPH,Wind Direction,Wind SpeedMPH,Gust SpeedMPH,PrecipitationIn,Events,Conditions,WindDirDegrees,DateUTC
12:56 AM,43.0,32.0,65,30.07,10.0,NW,6.9,-,N/A,,Clear,310,2013-05-14 04:56:00
1:56 AM,43.0,32.0,65,30.07,10.0,WNW,6.9,-,N/A,,Clear,300,2013-05-14 05:56:00
2:56 AM,42.1,32.0,67,30.06,10.0,WNW,4.6,-,N/A,,Clear,300,2013-05-14 06:56:00
3:56 AM,39.9,32.0,73,30.07,10.0,WNW,5.8,-,N/A,,Clear,290,2013-05-14 07:56:00
4:56 AM,41.0,32.0,70,30.07,10.0,WNW,5.8,-,N/A,,Clear,300,2013-05-14 08:56:00
5:56 AM,41.0,32.0,70,30.07,10.0,NW,6.9,-,N/A,,Partly Cloudy,310,2013-05-14 09:56:00
6:56 AM,45.0,33.1,63,30.09,10.0,WNW,9.2,-,N/A,,Partly Cloudy,300,2013-05-14 10:56:00
7:56 AM,48.0,33.1,56,30.09,10.0,NW,12.7,20.7,N/A,,Partly Cloudy,320,2013-05-14 11:56:00
8:56 AM,50.0,30.9,48,30.09,10.0,NW,11.5,-,N/A,,Clear,310,2013-05-14 12:56:00
9:56 AM,52.0,30.9,45,30.09,10.0,NNW,13.8,-,N/A,,Partly Cloudy,330,2013-05-14 13:56:00
10:56 AM,54.0,28.0,37,30.09,10.0,NW,8.1,-,N/A,,Partly Cloudy,310,2013-05-14 14:56:00
11:56 AM,55.0,26.1,33,30.08,0.0,WNW,17.3,-,N/A,,Scattered Clouds,300,2013-05-14 15:56:00
12:56 PM,55.9,25.0,30,30.07,10.0,NW,12.7,-,N/A,,Mostly Cloudy,310,2013-05-14 16:56:00
1:56 PM,57.0,25.0,29,30.07,10.0,NNW,13.8,17.3,N/A,,Mostly Cloudy,340,2013-05-14 17:56:00
2:56 PM,57.9,24.1,27,30.05,10.0,WNW,10.4,-,N/A,,Mostly Cloudy,290,2013-05-14 18:56:00
3:56 PM,57.9,24.1,27,30.04,10.0,Variable,3.5,17.3,N/A,,Mostly Cloudy,0,2013-05-14 19:56:00
4:56 PM,59.0,24.1,26,30.03,10.0,NNW,9.2,-,N/A,,Overcast,330,2013-05-14 20:56:00
5:56 PM,59.0,21.9,24,30.03,10.0,West,9.2,-,N/A,,Mostly Cloudy,260,2013-05-14 21:56:00
6:56 PM,54.0,36.0,51,30.03,10.0,SSW,13.8,-,N/A,,Scattered Clouds,210,2013-05-14 22:56:00
7:56 PM,51.1,37.9,61,30.04,10.0,SW,10.4,-,N/A,,Scattered Clouds,230,2013-05-14 23:56:00
8:56 PM,50.0,37.9,63,30.05,10.0,SW,6.9,-,N/A,,Partly Cloudy,220,2013-05-15 00:56:00
9:56 PM,48.9,37.9,66,30.06,10.0,SW,4.6,-,N/A,,Clear,220,2013-05-15 01:56:00
10:56 PM,50.0,39.0,66,30.06,10.0,SSW,5.8,-,N/A,,Clear,210,2013-05-15 02:56:00
11:56 PM,46.0,39.0,76,30.07,10.0,SW,3.5,-,N/A,,Clear,230,2013-05-15 03:56:00